Location: Lansingburgh
(42.7845°N, 73.6696°W)
Time: 22:00:23
(UTC+00:00)

Cosmos 1842 Rocket - Pass Details

Date: 24 January 2020
Orbit: 606 x 633 km, 82.5° (Epoch: 19 February)

Event Time Altitude Azimuth Distance (km) Brightness Sun altitude
Rises 23:04:02 0° 3° (N) 2,930 6.8 -12.4°
Reaches altitude 10° 23:06:35 10° 15° (NNE) 2,020 5.9 -12.8°
Maximum altitude 23:10:23 27° 74° (ENE) 1,229 4.5 -13.5°
Drops below altitude 10° 23:14:11 10° 132° (SE) 2,012 5.9 -14.2°
Sets 23:16:42 0° 144° (SE) 2,915 6.8 -14.6°
